East Milton, MA

5:56 PM EDT on April 26, 2017 (GMT -0400)
East Milton

Weather History for KMQE - April, 2013

Change the Weather History Date:

Thursday, April 25, 2013

  Actual Average (KOWD) Record (KOWD)
Temperature  
Mean Temperature 54 °F -  
Max Temperature 64 °F 60 °F 73 °F (2008)
Min Temperature 45 °F 37 °F 26 °F (2003)
Degree Days  
Heating Degree Days 10    
Growing Degree Days 4 (Base 50)    
Moisture  
Dew Point 34 °F    
Average Humidity 53    
Maximum Humidity 97    
Minimum Humidity 23    
Precipitation  
Precipitation 0.04 in - - ()
Sea Level Pressure  
Sea Level Pressure 30.09 in    
Wind  
Wind Speed 15 mph (WNW)    
Max Wind Speed 23 mph    
Max Gust Speed 34 mph    
Averages and records for this station are not official NWS values.
T = Trace of Precipitation, MM = Missing Value Source: NWS Daily Summary

Daily Weather History Graph

Daily Weather History Graph

Search for Another Location

Airport or City:

Trip Planner

Search our weather history database for the weather conditions in past years. The results will help you decide how hot, cold, wet, or windy it might be!

Date:

Astronomy

Apr. 25, 2013 Rise Set
Actual Time 5:48 AM EDT 7:37 PM EDT
Civil Twilight 5:18 AM EDT 8:07 PM EDT
Nautical Twilight 4:41 AM EDT 8:44 PM EDT
Astronomical Twilight 4:02 AM EDT 9:23 PM EDT
Moon 7:47 PM EDT (4/25) 5:29 AM EDT (4/25)
Length of Visible Light 14h 49m
Length of Day
13h 49m
Full, 100% of the Moon is Illuminated
Apr 25
Full
Apr 25
Full
May 2
Last Quarter
May 9
New
May 18
First Quarter

Hourly Weather History & Observations

Time (EDT) Temp. Windchill Dew Point Humidity Pressure Visibility Wind Dir Wind Speed Gust Speed Precip Events Conditions
12:54 AM 50.0 °F - 46.9 °F 89% 29.90 in - SSW 23.0 mph 34.5 mph N/A   Unknown
1:54 AM 51.1 °F - 48.9 °F 92% 29.87 in - South 20.7 mph 34.5 mph N/A   Unknown
2:54 AM 52.0 °F - 48.9 °F 89% 29.86 in - South 18.4 mph 26.5 mph N/A   Unknown
3:54 AM 53.1 °F - 50.0 °F 89% 29.89 in - SW 13.8 mph 24.2 mph N/A   Unknown
4:54 AM 53.1 °F - 50.0 °F 89% 29.91 in - SW 10.4 mph 19.6 mph N/A   Unknown
5:54 AM 52.0 °F - 51.1 °F 97% 29.95 in - West 15.0 mph 20.7 mph 0.03 in   Unknown
6:54 AM 46.9 °F - 41.0 °F 80% 30.02 in - WNW 15.0 mph 24.2 mph 0.01 in   Unknown
7:54 AM 46.9 °F - 36.0 °F 66% 30.06 in - WNW 16.1 mph 23.0 mph N/A   Unknown
8:54 AM 45.0 °F 39.7 °F 37.0 °F 74% 30.08 in - West 10.4 mph - N/A   Unknown
9:54 AM 48.0 °F - 34.0 °F 58% 30.09 in - NW 13.8 mph 24.2 mph N/A   Unknown
10:54 AM 54.0 °F - 34.0 °F 47% 30.10 in - West 15.0 mph 20.7 mph N/A   Unknown
11:54 AM 57.0 °F - 32.0 °F 39% 30.12 in - WNW 15.0 mph 21.9 mph N/A   Unknown
12:54 PM 60.1 °F - 30.0 °F 32% 30.13 in - NW 10.4 mph 20.7 mph N/A   Unknown
1:54 PM 62.1 °F - 28.9 °F 29% 30.13 in - WNW 9.2 mph - N/A   Unknown
2:54 PM 62.1 °F - 27.0 °F 26% 30.13 in - Variable 6.9 mph 16.1 mph N/A   Unknown
3:54 PM 64.0 °F - 28.0 °F 26% 30.12 in - WNW 13.8 mph 18.4 mph N/A   Unknown
4:54 PM 62.1 °F - 25.0 °F 24% 30.14 in - West 11.5 mph 16.1 mph N/A   Unknown
5:54 PM 63.0 °F - 24.1 °F 23% 30.15 in - NW 9.2 mph - N/A   Unknown
6:54 PM 60.1 °F - 25.0 °F 26% 30.17 in - West 9.2 mph - N/A   Unknown
7:54 PM 55.0 °F - 25.0 °F 31% 30.20 in - West 5.8 mph - N/A   Unknown
8:54 PM 53.1 °F - 23.0 °F 31% 30.24 in - WNW 6.9 mph - N/A   Unknown
9:54 PM 51.1 °F - 25.0 °F 36% 30.25 in - NW 8.1 mph - N/A   Unknown
10:54 PM 48.9 °F - 25.0 °F 39% 30.27 in - NW 9.2 mph - N/A   Unknown
11:54 PM 48.0 °F - 24.1 °F 39% 30.28 in - NNW 10.4 mph - N/A   Unknown